Showing default

TRANSIT 5B-2, 704

Orbit data source: Space-Track

TRANSIT 5B-2, 704 is a payload satellite owned by USN BuWeps (US) in LEO that was launched on Thu, 05 Dec 1963 UTC via a THOR ABLESTAR launch vehicle from the Air Force Western Test Range (AFWTR). Payload-class satellites include a variety of spacecraft equipped with specific instruments for various scientific and technological missions. These include communications satellites like Starlink; space stations such as the ISS; scientific satellites like the Hubble; Earth observation satellites from companies like Planet Labs, Umbra, and HawkEye 360; GPS; miniature CubeSats for education and research; and military/defense satellites.

Loading next visibility...
Identifier
704, 1963-049B
Orbit
LEO
Country
Flag of USUS
Related business
Manufacturer
APL
Mission
Defense Navigation
Bus & Motor
TRANSIT 5, Unknown motor
Mass
75 kg wet, 75 kg dry
Launch date (UTC)
1963-12-05 (62 years ago)
Launch vehicle
THOR ABLESTAR
Launch site
Air Force Western Test Range (AFWTR)
Object type
Payload
Rocket body
Debris
Shape & HBR
Oct Cyl + Cyl + 1 Rod, 15.0 m
Radar Cross Section
0.334 m², Large (>1 m²)

Expand to show TLE details & history
Last TLE update: 1 day ago

TLE from 1 day ago
0 TRANSIT 5B-2
1 00704U 63049B   25242.08581065  .00000056  00000-0  76359-4 0  9996
2 00704  89.9130  72.7988 0036527  58.0837  62.4261 13.47086746 32134
Epoch: 2025-08-30T02:03Z
TLE epoch observation values (Epoch: 2025-08-30T02:03:34.04Z)
Latitude
59.2091°
Longitude
-116.76344°
Altitude
1,080.572 km
Speed
7.323 km/s
True Right ascension
16h 50m 36s
True Declination
59° 03' 51"
Sunlit
Object was in daylight at epoch
Visualization orbit readout
Latitude
Unknown
Longitude
Unknown
Altitude
Unknown
Speed
Unknown
Apparent Right ascension
Unknown
Apparent Declination
Unknown
Sunlit
N/A
Visualization observer readout
Local Sidereal Time
18:03:42
Azimuth
Unknown
Elevation
Unknown
Doppler factor
Unknown
Orbital elements
Apogee altitude
1,107.293 km
Perigee altitude
1,052.808 km
Semi-major axis
7,458.187 km
Eccentricity
0.00365
Inclination
89.913°
RAAN
72.7988°
Arg. of periapsis
58.0837°
True anomaly
62.79791°
Mean anomaly
62.4261°
Eccentric anomaly
62.61193°
Mean motion
3.36972 °/min
Orbital period
106.83 mins
BSTAR
0.000076359
Loading maneuver chart data...
Computing Atmospheric mass density...
Loading historical data...
Loading historical data...
Loading historical data...
Loading historical data...
Loading historical data...
Loading historical data...
Loading historical data...

Documentation

Showing up to 5 results
|